This is the latest recevied weather packets stored in our database for station/object KC5CAM-13. If no packets are shown the sender has not sent any weather packets the latest 10 day(s).
| Time | Temp. | Humidity | Pressure | Rain* | Wind** | Luminosity | Snow |
|---|---|---|---|---|---|---|---|
| 1777904024 | 20° C | 72% | 1013.1 hPa | 0 mm | - | 80 W/m² | - |
| 1777903721 | 20° C | 72% | 1013.2 hPa | 0 mm | - | 62 W/m² | - |
| 1777903416 | 19.44° C | 72% | 1013.3 hPa | 0 mm | - | 76 W/m² | - |
| 1777903113 | 19.44° C | 72% | 1013.4 hPa | 0 mm | - | 65 W/m² | - |
| 1777902810 | 19.44° C | 73% | 1013.2 hPa | 0 mm | - | 53 W/m² | - |
| 1777902507 | 19.44° C | 74% | 1013.6 hPa | 0 mm | - | 53 W/m² | - |
| 1777902204 | 18.89° C | 74% | 1013.4 hPa | 0 mm | - | 45 W/m² | - |
| 1777901902 | 18.89° C | 74% | 1013.4 hPa | 0 mm | - | 51 W/m² | - |
| 1777901600 | 18.33° C | 75% | 1013.6 hPa | 0 mm | - | 53 W/m² | - |
| 1777901297 | 18.33° C | 75% | 1013.4 hPa | 0 mm | - | 50 W/m² | - |
| 1777900994 | 18.33° C | 75% | 1013.2 hPa | 0 mm | - | 53 W/m² | - |
| 1777900692 | 18.33° C | 75% | 1013.4 hPa | 0 mm | - | 63 W/m² | - |
| 1777900388 | 17.78° C | 75% | 1013.4 hPa | 0 mm | - | 62 W/m² | - |
| 1777900086 | 17.78° C | 75% | 1013.4 hPa | 0 mm | - | 62 W/m² | - |
| 1777899781 | 17.78° C | 76% | 1013.4 hPa | 0 mm | - | 52 W/m² | - |
| 1777899478 | 17.22° C | 75% | 1013.6 hPa | 0 mm | - | 38 W/m² | - |
| 1777899176 | 17.78° C | 75% | 1013.6 hPa | 0 mm | - | 32 W/m² | - |
| 1777898874 | 17.22° C | 74% | 1013.6 hPa | 0 mm | - | 32 W/m² | - |
| 1777898571 | 17.22° C | 74% | 1013.4 hPa | 0 mm | - | 32 W/m² | - |
| 1777898268 | 17.22° C | 74% | 1013.3 hPa | 0 mm | - | 29 W/m² | - |
| 1777897965 | 17.22° C | 73% | 1013.5 hPa | 0 mm | - | 29 W/m² | - |
| 1777897661 | 17.22° C | 73% | 1013.3 hPa | 0 mm | - | 25 W/m² | - |
| 1777897358 | 17.22° C | 73% | 1013.4 hPa | 0 mm | - | 24 W/m² | - |
| 1777897053 | 17.22° C | 72% | 1013.4 hPa | 0 mm | - | 22 W/m² | - |
| 1777896751 | 17.22° C | 73% | 1013.2 hPa | 0 mm | - | 19 W/m² | - |
* Rain latest hour (hover to see other rain measurements)
** Current wind speed in m/s (hover to see current wind gust speed)